Weather History for Kokomo, IN

Change the Weather History Date:

Monday, March 11, 2013

  Actual Average (KGUS) Record (KGUS)
Temperature  
Mean Temperature 42 °F -  
Max Temperature 51 °F 41 °F 69 °F (2012)
Min Temperature 33 °F 26 °F 8 °F (1999)
Degree Days  
Heating Degree Days 23    
Moisture  
Dew Point 39 °F    
Average Humidity 87    
Maximum Humidity 100    
Minimum Humidity 71    
Precipitation  
Precipitation 0.15 in - - ()
Sea Level Pressure  
Sea Level Pressure 29.69 in    
Wind  
Wind Speed 12 mph (SW)    
Max Wind Speed 32 mph    
Max Gust Speed 39 mph    
Visibility 8 miles    
Events      
Averages and records for this station are not official NWS values.
T = Trace of Precipitation, MM = Missing Value Source: NWS Daily Summary

Daily Weather History Graph

Daily Weather History Graph

Search for Another Location

Airport:

Trip Planner

Search our weather history database for the weather conditions in past years. The results will help you decide how hot, cold, wet, or windy it might be!

Date:

Astronomy

Mar. 11, 2013 Rise Set
Actual Time 7:01 AM CDT 6:47 PM CDT
Civil Twilight 6:34 AM CDT 7:14 PM CDT
Nautical Twilight 6:03 AM CDT 7:45 PM CDT
Astronomical Twilight 5:31 AM CDT 8:17 PM CDT
Moon 6:35 AM CDT (3/11) 6:58 PM CDT (3/11)
Length of Visible Light 12h 39m
Length of Day
11h 45m
Waning Crescent, 0% of the Moon is Illuminated
Mar 11
Waning Crescent
Mar 11
New
Mar 19
First Quarter
Mar 27
Full
Apr 2
Last Quarter

Hourly Weather History & Observations

Time (CDT) Temp. Windchill Dew Point Humidity Pressure Visibility Wind Dir Wind Speed Gust Speed Precip Events Conditions
12:15 AM 51.8 °F - 42.8 °F 71% 29.71 in 10.0 mi South 6.9 mph - N/A   Overcast
12:35 AM 51.8 °F - 42.8 °F 71% 29.70 in 10.0 mi South 6.9 mph - N/A   Overcast
12:55 AM 50.0 °F - 42.8 °F 76% 29.71 in 10.0 mi South 8.1 mph - N/A   Overcast
1:15 AM 50.0 °F - 42.8 °F 76% 29.71 in 10.0 mi South 4.6 mph - N/A   Overcast
1:35 AM 50.0 °F - 44.6 °F 82% 29.71 in 10.0 mi West 6.9 mph - N/A   Overcast
1:55 AM 50.0 °F - 46.4 °F 87% 29.70 in 10.0 mi West 9.2 mph - N/A   Overcast
2:15 AM 50.0 °F - 46.4 °F 87% 29.70 in 10.0 mi SW 9.2 mph - N/A   Overcast
2:35 AM 50.0 °F - 48.2 °F 94% 29.70 in 10.0 mi SW 5.8 mph - N/A   Overcast
2:55 AM 50.0 °F - 46.4 °F 87% 29.69 in 8.0 mi South 5.8 mph - N/A   Overcast
3:15 AM 48.2 °F - 46.4 °F 93% 29.68 in 8.0 mi South 4.6 mph - N/A   Overcast
3:55 AM 48.2 °F - 46.4 °F 93% 29.66 in 9.0 mi South 10.4 mph - N/A   Overcast
4:15 AM 48.2 °F - 46.4 °F 93% 29.66 in 4.0 mi SSE 9.2 mph - 0.01 in   Overcast
4:35 AM 48.2 °F - 46.4 °F 93% 29.66 in 7.0 mi South 11.5 mph - 0.01 in   Overcast
4:55 AM 48.2 °F - 46.4 °F 93% 29.66 in 8.0 mi South 12.7 mph - 0.01 in   Overcast
5:15 AM 48.2 °F - 46.4 °F 93% 29.65 in 2.5 mi South 9.2 mph - 0.03 in   Overcast
5:35 AM 48.2 °F - 48.2 °F 100% 29.66 in 2.5 mi SSW 8.1 mph - 0.04 in   Overcast
5:55 AM 48.2 °F - 48.2 °F 100% 29.67 in 5.0 mi SSW 6.9 mph - 0.05 in   Overcast
6:15 AM 48.2 °F - 48.2 °F 100% 29.68 in 8.0 mi South 6.9 mph - N/A   Mostly Cloudy
6:35 AM 48.2 °F - 48.2 °F 100% 29.67 in 10.0 mi South 6.9 mph - N/A   Overcast
6:55 AM 48.2 °F - 46.4 °F 93% 29.65 in 10.0 mi South 5.8 mph - N/A   Overcast
7:15 AM 48.2 °F - 46.4 °F 93% 29.65 in 8.0 mi South 5.8 mph - N/A   Overcast
7:35 AM 48.2 °F - 46.4 °F 93% 29.66 in 4.0 mi South 5.8 mph - N/A   Overcast
7:55 AM 48.2 °F - 46.4 °F 93% 29.64 in 7.0 mi South 6.9 mph - N/A   Overcast
8:15 AM 48.2 °F - 46.4 °F 93% 29.66 in 9.0 mi South 6.9 mph - N/A   Overcast
8:35 AM 48.2 °F - 46.4 °F 93% 29.66 in 8.0 mi South 9.2 mph - N/A   Overcast
8:55 AM 48.2 °F - 48.2 °F 100% 29.63 in 7.0 mi SSE 8.1 mph - N/A   Mostly Cloudy
9:15 AM 48.2 °F - 46.4 °F 93% 29.63 in 6.0 mi South 9.2 mph - N/A   Mostly Cloudy
9:35 AM 48.2 °F - 48.2 °F 100% 29.62 in 9.0 mi SSW 10.4 mph - N/A   Overcast
9:55 AM 50.0 °F - 46.4 °F 87% 29.61 in 10.0 mi SSW 10.4 mph - N/A   Overcast
10:15 AM 50.0 °F - 46.4 °F 87% 29.61 in 7.0 mi SW 11.5 mph - N/A   Overcast
10:35 AM 48.2 °F - 46.4 °F 93% 29.60 in 4.0 mi SW 11.5 mph - N/A   Overcast
10:55 AM 46.4 °F 40.4 °F 44.6 °F 93% 29.60 in 2.5 mi West 13.8 mph - 0.01 in   Overcast
11:15 AM 46.4 °F 40.1 °F 44.6 °F 93% 29.61 in 3.0 mi WNW 15.0 mph - 0.01 in   Overcast
11:35 AM 46.4 °F 39.8 °F 42.8 °F 87% 29.59 in 5.0 mi WNW 16.1 mph - 0.02 in   Overcast
11:55 AM 44.6 °F 38.4 °F 42.8 °F 93% 29.61 in 5.0 mi WNW 12.7 mph - 0.02 in   Overcast
12:15 PM 44.6 °F 38.8 °F 42.8 °F 93% 29.61 in 7.0 mi West 11.5 mph - 0.01 in   Overcast
12:35 PM 44.6 °F 36.6 °F 42.8 °F 93% 29.61 in 6.0 mi West 19.6 mph - 0.06 in   Overcast
12:55 PM 42.8 °F 34.8 °F 39.2 °F 87% 29.62 in 8.0 mi West 17.3 mph 25.3 mph 0.06 in   Overcast
1:15 PM 42.8 °F 34.8 °F 39.2 °F 87% 29.61 in 10.0 mi West 17.3 mph - N/A   Mostly Cloudy
1:35 PM 42.8 °F 33.5 °F 39.2 °F 87% 29.62 in 10.0 mi West 23.0 mph 27.6 mph N/A   Overcast
1:55 PM 44.6 °F 35.5 °F 37.4 °F 76% 29.61 in 10.0 mi WSW 25.3 mph 33.4 mph N/A   Mostly Cloudy
2:15 PM 42.8 °F 33.5 °F 35.6 °F 76% 29.62 in 10.0 mi WSW 23.0 mph 35.7 mph N/A   Overcast
2:35 PM 42.8 °F 34.3 °F 35.6 °F 76% 29.62 in 10.0 mi WSW 19.6 mph 29.9 mph N/A   Overcast
2:55 PM 42.8 °F 32.9 °F 35.6 °F 76% 29.62 in 10.0 mi WSW 26.5 mph 35.7 mph N/A   Overcast
3:15 PM 42.8 °F 31.9 °F 35.6 °F 76% 29.63 in 10.0 mi WSW 32.2 mph 39.1 mph N/A   Overcast
3:35 PM 39.2 °F 27.8 °F 33.8 °F 81% 29.65 in 10.0 mi WSW 27.6 mph 33.4 mph N/A   Overcast
3:55 PM 37.4 °F 26.4 °F 33.8 °F 87% 29.66 in 10.0 mi WSW 23.0 mph 32.2 mph N/A   Overcast
4:15 PM 37.4 °F 26.6 °F 33.8 °F 87% 29.67 in 10.0 mi West 21.9 mph 26.5 mph N/A   Overcast
4:35 PM 37.4 °F 27.8 °F 33.8 °F 87% 29.68 in 10.0 mi WSW 17.3 mph - N/A   Overcast
4:55 PM 37.4 °F 26.4 °F 32.0 °F 81% 29.69 in 10.0 mi West 23.0 mph 26.5 mph N/A   Overcast
5:15 PM 35.6 °F 22.7 °F 32.0 °F 87% 29.70 in 10.0 mi WSW 28.8 mph 32.2 mph N/A   Overcast
5:35 PM 35.6 °F 23.2 °F 32.0 °F 87% 29.71 in 10.0 mi WSW 26.5 mph 31.1 mph N/A   Overcast
5:55 PM 35.6 °F 24.0 °F 32.0 °F 87% 29.72 in 10.0 mi West 23.0 mph 31.1 mph N/A   Overcast
6:15 PM 35.6 °F 24.0 °F 30.2 °F 81% 29.72 in 10.0 mi West 23.0 mph 28.8 mph N/A   Overcast
6:35 PM 35.6 °F 25.5 °F 30.2 °F 81% 29.72 in 10.0 mi West 17.3 mph - N/A   Overcast
6:55 PM 35.6 °F 25.2 °F 30.2 °F 81% 29.74 in 10.0 mi West 18.4 mph - N/A   Overcast
7:15 PM 35.6 °F 24.5 °F 30.2 °F 81% 29.75 in 10.0 mi WSW 20.7 mph 24.2 mph N/A   Overcast
7:35 PM 35.6 °F 25.5 °F 30.2 °F 81% 29.75 in 10.0 mi WSW 17.3 mph 26.5 mph N/A   Overcast
7:55 PM 35.6 °F 24.5 °F 30.2 °F 81% 29.76 in 10.0 mi WSW 20.7 mph 24.2 mph N/A   Overcast
8:15 PM 35.6 °F 24.0 °F 30.2 °F 81% 29.77 in 10.0 mi WSW 23.0 mph - N/A   Overcast
8:35 PM 35.6 °F 24.2 °F 30.2 °F 81% 29.78 in 10.0 mi WSW 21.9 mph 26.5 mph N/A   Overcast
8:55 PM 35.6 °F 25.2 °F 30.2 °F 81% 29.79 in 10.0 mi WSW 18.4 mph 31.1 mph N/A   Overcast
9:15 PM 35.6 °F 24.5 °F 30.2 °F 81% 29.80 in 10.0 mi WSW 20.7 mph 28.8 mph N/A   Overcast
9:35 PM 33.8 °F 22.2 °F 30.2 °F 87% 29.80 in 5.0 mi WSW 20.7 mph 26.5 mph N/A   Overcast
9:55 PM 33.8 °F 23.9 °F 30.2 °F 87% 29.80 in 2.5 mi WSW 15.0 mph - N/A   Overcast
10:15 PM 33.8 °F 23.9 °F 30.2 °F 87% 29.81 in 7.0 mi West 15.0 mph 26.5 mph N/A   Overcast
10:35 PM 33.8 °F 22.5 °F 30.2 °F 87% 29.82 in 8.0 mi West 19.6 mph 25.3 mph N/A   Overcast
10:55 PM 33.8 °F 22.5 °F 30.2 °F 87% 29.82 in 7.0 mi West 19.6 mph 26.5 mph N/A   Overcast
11:15 PM 33.8 °F 22.2 °F 30.2 °F 87% 29.83 in 5.0 mi West 20.7 mph - N/A   Overcast
11:35 PM 33.8 °F 21.9 °F 30.2 °F 87% 29.84 in 5.0 mi West 21.9 mph 26.5 mph N/A   Overcast
11:55 PM 33.8 °F 22.8 °F 30.2 °F 87% 29.84 in 8.0 mi West 18.4 mph - N/A   Overcast